Theta_e
365 357 357 359 357 357 357 359 365 366 369 370 365 364 364 358 354 355 350 350 350 347
363 362 359 362 362 359 364 362 368 367 367 370 367 365 364 356 354 353 351 350 349 344
361 363 362 363 363 361 362 368 367 369 368 369 368 367 365 359 356 353 349 344 346 345
360 360 362 360 363 364 364 367 370 371 371 370 368 368 366 362 357 353 351 347 344 341
360 360 358 360 360 365 365 365 370 372 371 371 369 368 366 361 357 353 351 348 343 340
358 357 356 357 360 362 366 367 366 371 371 372 370 368 367 364 359 355 352 349 343 340
356 358 356 360 362 361 367 366 366 367 370 372 370 368 365 363 359 356 352 347 343 339
361 363 363 369 367 365 365 367 368 368 369 370 367 362 360 359 355 350 347 344 341 338
366 366 367 371 369 373 369 367 369 368 367 366 349 337 340 343 340 341 340 338 338 337
366 366 368 367 368 368 368 369 368 367 368 346 342 334 336 340 343 340 340 340 338 333
366 366 367 368 367 369 369 369 370 366 354 343 339 332 333 337 338 339 342 341 338 336
365 365 366 366 367 368 368 369 362 355 345 341 337 331 331 332 337 336 339 342 337 335
365 364 364 366 367 368 370 361 351 346 344 338 340 328 328 330 336 337 340 338 336 330
369 368 367 367 365 365 360 350 345 342 344 346 339 337 323 325 337 338 341 335 336 330
Wind_Speed
12 9 9 9 8 7 5 3 4 7 6 6 6 5 4 4 4 3 4 3 3 2
13 13 10 9 8 8 7 4 5 7 7 7 7 6 5 4 4 2 3 2 2 4
14 14 12 10 11 10 8 7 6 7 8 8 8 7 7 3 5 4 3 3 2 3
14 14 13 12 12 12 11 10 10 9 9 9 9 9 8 5 5 5 3 2 3 4
14 13 14 14 14 12 12 12 11 11 10 10 10 10 10 9 7 7 6 5 5 5
14 14 15 15 15 14 13 13 13 12 12 11 11 11 10 9 8 9 8 6 5 5
15 15 15 14 14 14 13 14 14 14 13 12 11 11 10 9 7 7 6 7 7 6
13 13 13 12 13 14 13 13 13 12 12 11 10 7 7 7 3 3 6 5 6 8
12 12 12 12 13 13 13 12 11 11 11 12 7 15 16 12 9 11 9 5 7 5
12 13 12 12 12 12 11 11 11 10 9 12 12 16 9 11 4 3 7 11 9 10
11 12 11 11 11 10 10 11 10 10 13 15 12 15 8 2 7 8 10 10 10 9
9 9 8 9 9 8 8 8 10 12 17 18 14 15 22 22 15 11 11 10 10 8
5 6 7 7 7 6 4 9 9 13 16 19 18 24 25 2 9 11 10 8 9 10
4 1 3 4 2 4 8 10 11 13 14 18 16 16 10 10 8 8 9 7 10 9
Wind_Direction
210 213 216 216 246 227 241 221 168 196 209 196 187 197 194 207 232 174 214 214 319 288
204 217 214 225 212 227 234 237 207 206 207 200 195 198 185 226 211 204 225 163 204 281
207 208 214 214 220 231 234 221 217 206 207 202 198 197 203 180 166 203 217 228 178 280
208 208 209 215 218 220 222 218 218 213 210 208 200 197 200 222 146 198 203 263 215 203
213 209 211 217 219 217 218 217 214 215 213 214 207 198 201 202 186 200 207 208 228 232
214 214 217 219 221 214 216 217 214 212 214 211 209 204 202 203 198 206 212 210 220 231
221 219 220 221 221 220 214 218 217 217 219 215 208 199 198 192 202 222 218 218 207 211
232 229 221 224 219 221 223 220 224 219 219 216 208 154 175 172 141 252 239 238 222 210
226 232 230 224 220 219 219 223 222 221 213 210 107 108 107 126 172 199 179 205 214 197
217 223 228 231 233 230 224 223 215 211 192 123 134 132 139 184 195 207 231 212 180 203
220 225 226 226 229 228 219 210 189 179 139 138 138 144 141 70 274 236 244 225 209 220
243 243 239 237 234 228 219 207 152 143 147 149 151 177 177 181 202 220 215 204 213 212
255 244 241 231 221 214 198 136 148 156 161 167 178 201 200 219 146 195 203 173 193 203
20 170 191 183 186 150 124 144 151 157 174 185 186 205 152 193 174 204 191 174 192 185